| time (UTC) | temp F | wind direction | speed MPH | gust MPH | rain 1hr in | rain 24hr in | rain mn in | humidity % | barometer mb |
| 20260503173101 | 60 | 0 | 0.0 | 4.0 | 0.16 | 0.48 | 0.45 | 94 | 1011.1 |
| 20260503171552 | 60 | 0 | 0.0 | 6.0 | 0.18 | 0.48 | 0.45 | 94 | 1011.2 |
| 20260503150103 | 66 | 62 | 1.0 | 3.0 | 0.00 | 0.29 | 0.25 | 92 | 1010.3 |
| 20260503100107 | 62 | 312 | 2.0 | 5.0 | 0.00 | 0.55 | 0.00 | 93 | 1012.9 |
| 20260503081554 | 58 | 195 | 0.0 | 2.0 | 0.00 | 0.55 | 0.00 | 94 | 1013.0 |
| 20260503071612 | 57 | 0 | 0.0 | 2.0 | 0.00 | 0.55 | 0.00 | 96 | 1013.0 |
| 20260503054553 | 53 | 0 | 0.0 | 1.0 | 0.00 | 0.55 | 0.00 | 95 | 1013.0 |
| 20260503053054 | 53 | 0 | 0.0 | 1.0 | 0.00 | 0.55 | 0.00 | 95 | 1013.0 |
| 20260503051552 | 53 | 0 | 0.0 | 1.0 | 0.00 | 0.55 | 0.00 | 95 | 1013.0 |
| 20260503050101 | 53 | 0 | 0.0 | 1.0 | 0.00 | 0.55 | 0.00 | 95 | 1012.8 |
| 20260503044559 | 53 | 0 | 0.0 | 1.0 | 0.00 | 0.55 | 0.00 | 95 | 1013.0 |
| 20260503043054 | 53 | 0 | 0.0 | 1.0 | 0.00 | 0.55 | 0.00 | 95 | 1012.9 |
| 20260503041552 | 53 | 82 | 0.0 | 1.0 | 0.00 | 0.55 | 0.00 | 95 | 1012.8 |
| 20260503040049 | 54 | 117 | 0.0 | 1.0 | 0.00 | 0.55 | 0.00 | 95 | 1012.9 |
| 20260503034603 | 54 | 0 | 0.0 | 1.0 | 0.00 | 0.55 | 0.00 | 95 | 1012.8 |
| 20260503033056 | 54 | 0 | 0.0 | 0.0 | 0.00 | 0.55 | 0.00 | 95 | 1013.0 |
| 20260503031553 | 54 | 0 | 0.0 | 1.0 | 0.00 | 0.55 | 0.00 | 95 | 1013.0 |
| 20260503030051 | 55 | 0 | 0.0 | 0.0 | 0.00 | 0.55 | 0.00 | 95 | 1013.1 |
| 20260503024551 | 55 | 0 | 0.0 | 1.0 | 0.00 | 0.55 | 0.00 | 95 | 1013.3 |
| 20260503023057 | 55 | 0 | 0.0 | 0.0 | 0.00 | 0.55 | 0.00 | 95 | 1013.3 |
| 20260503021549 | 55 | 0 | 0.0 | 0.0 | 0.00 | 0.55 | 0.00 | 95 | 1013.5 |
| 20260503020055 | 55 | 0 | 0.0 | 0.0 | 0.00 | 0.55 | 0.00 | 95 | 1013.5 |
| 20260503014603 | 55 | 0 | 0.0 | 1.0 | 0.00 | 0.55 | 0.00 | 95 | 1013.7 |
| 20260503013053 | 56 | 0 | 0.0 | 1.0 | 0.00 | 0.54 | 0.00 | 95 | 1013.7 |
| 20260503011552 | 56 | 0 | 0.0 | 1.0 | 0.00 | 0.54 | 0.00 | 95 | 1013.8 |
| 20260503010052 | 56 | 0 | 0.0 | 0.0 | 0.00 | 0.54 | 0.00 | 95 | 1013.9 |
| 20260503004548 | 56 | 0 | 0.0 | 1.0 | 0.00 | 0.54 | 0.00 | 95 | 1014.0 |
| 20260503003106 | 57 | 122 | 0.0 | 1.0 | 0.00 | 0.54 | 0.00 | 95 | 1014.1 |
| 20260503001607 | 57 | 0 | 0.0 | 0.0 | 0.00 | 0.54 | 0.00 | 95 | 1014.1 |
| 20260503000053 | 57 | 0 | 0.0 | 0.0 | 0.00 | 0.54 | 0.00 | 95 | 1014.2 |
| 20260502234553 | 57 | 0 | 0.0 | 0.0 | 0.00 | 0.54 | 0.00 | 95 | 1014.3 |
| 20260502233047 | 57 | 117 | 0.0 | 1.0 | 0.00 | 0.54 | 0.00 | 95 | 1014.3 |
| 20260502231555 | 58 | 0 | 0.0 | 0.0 | 0.00 | 0.54 | 0.00 | 95 | 1014.4 |
| 20260502230057 | 58 | 0 | 0.0 | 0.0 | 0.00 | 0.54 | 0.00 | 95 | 1014.5 |
| 20260502224557 | 57 | 0 | 0.0 | 1.0 | 0.00 | 0.54 | 0.00 | 95 | 1014.3 |
| 20260502223054 | 57 | 0 | 0.0 | 0.0 | 0.00 | 0.54 | 0.00 | 95 | 1014.4 |
| 20260502221552 | 58 | 0 | 0.0 | 0.0 | 0.00 | 0.54 | 0.00 | 95 | 1014.4 |
| 20260502220054 | 58 | 0 | 0.0 | 1.0 | 0.00 | 0.54 | 0.00 | 95 | 1014.3 |
| 20260502214600 | 58 | 0 | 0.0 | 1.0 | 0.00 | 0.54 | 0.54 | 95 | 1014.4 |
| 20260502213050 | 58 | 0 | 0.0 | 0.0 | 0.00 | 0.54 | 0.54 | 95 | 1014.3 |
| 20260502211549 | 58 | 0 | 0.0 | 0.0 | 0.00 | 0.54 | 0.54 | 95 | 1014.2 |
| 20260502210104 | 58 | 176 | 0.0 | 1.0 | 0.00 | 0.54 | 0.54 | 95 | 1014.4 |
| 20260502204548 | 58 | 0 | 0.0 | 0.0 | 0.00 | 0.54 | 0.54 | 95 | 1014.4 |
| 20260502203054 | 58 | 0 | 0.0 | 0.0 | 0.00 | 0.54 | 0.54 | 95 | 1014.2 |
| 20260502201607 | 58 | 0 | 0.0 | 0.0 | 0.00 | 0.54 | 0.54 | 94 | 1014.1 |
| 20260502200050 | 59 | 0 | 0.0 | 0.0 | 0.00 | 0.54 | 0.54 | 94 | 1013.8 |
| 20260502194551 | 59 | 0 | 0.0 | 0.0 | 0.00 | 0.54 | 0.54 | 94 | 1013.8 |
| 20260502193052 | 59 | 0 | 0.0 | 0.0 | 0.00 | 0.54 | 0.54 | 94 | 1013.5 |
| 20260502191550 | 60 | 0 | 0.0 | 0.0 | 0.00 | 0.54 | 0.54 | 94 | 1013.6 |
| 20260502190055 | 61 | 0 | 0.0 | 0.0 | 0.00 | 0.54 | 0.54 | 94 | 1013.7 |
| 20260502184604 | 61 | 0 | 0.0 | 0.0 | 0.00 | 0.54 | 0.54 | 94 | 1013.8 |
| 20260502183102 | 62 | 0 | 0.0 | 0.0 | 0.01 | 0.54 | 0.54 | 94 | 1013.8 |
| 20260502181605 | 61 | 0 | 0.0 | 0.0 | 0.02 | 0.54 | 0.54 | 94 | 1014.0 |